Montpelier, VT

2:53 AM EST on November 15, 2019 (GMT -0500)
Knapp State

Weather History for KMPV - August, 2019

Change the Weather History Date:

Thursday, August 29, 2019

  Actual Average Record
Temperature  
Mean Temperature 66 °F 63 °F  
Max Temperature 75 °F 75 °F 91 °F (1977)
Min Temperature 56 °F 52 °F 36 °F (1955)
Degree Days  
Heating Degree Days 0 3  
Month to date heating degree days 50 61  
Since 1 June heating degree days 203 222  
Since 1 July heating degree days 59 101  
Cooling Degree Days 0 2  
Month to date cooling degree days 53 74  
Year to date cooling degree days 211 242  
Since 1 June cooling degree days 210 232  
Growing Degree Days 16 (Base 50)    
Moisture  
Dew Point 60 °F    
Average Humidity 86    
Maximum Humidity 100    
Minimum Humidity 53    
Precipitation  
Precipitation 0.13 in 0.10 in 1.83 in (1949)
Month to date precipitation 4.25 3.81  
Year to date precipitation 34.80 24.60  
Sea Level Pressure  
Sea Level Pressure 29.90 in    
Wind  
Wind Speed 3 mph ()    
Max Wind Speed 16 mph    
Max Gust Speed 20 mph    
Visibility 9.4 miles    
Events Rain    
T = Trace of Precipitation, MM = Missing Value Source: Averaged Metar Reports

Daily Weather History Graph

Daily Weather History Graph

Search for Another Location

Airport or City:

Astronomy

Aug. 29, 2019 Rise Set
Actual Time 6:09 AM EDT 7:32 PM EDT
Civil Twilight 5:39 AM EDT 8:02 PM EDT
Nautical Twilight 5:03 AM EDT 8:38 PM EDT
Astronomical Twilight 4:24 AM EDT 9:16 PM EDT
Moon 4:46 AM EDT (8/29) 7:30 PM EDT (8/29)
Length of Visible Light 14h 22m
Length of Day
13h 22m
Waning Crescent, 1% of the Moon is Illuminated
Aug 29
Waning Crescent
Aug 30
New
Sep 5
First Quarter
Sep 14
Full
Sep 21
Last Quarter

Hourly Weather History & Observations

Time (EDT) Temp. Dew Point Humidity Pressure Visibility Wind Dir Wind Speed Gust Speed Precip Events Conditions
12:15 AM 64.0 °F 63.0 °F 96% 29.89 in 8.0 mi WNW 8.1 mph - 0.07 in Rain Light Rain
12:28 AM 63.0 °F 63.0 °F 100% 29.89 in 6.0 mi WNW 5.8 mph - 0.09 in Rain Light Rain
12:48 AM 62.6 °F 62.6 °F 100% 29.90 in 7.0 mi Calm Calm - 0.11 in Rain Light Rain
12:51 AM 63.0 °F 63.0 °F 100% 29.88 in 8.0 mi North 3.5 mph - 0.11 in Rain Light Rain
1:18 AM 63.0 °F 63.0 °F 100% 29.89 in 10.0 mi Calm Calm - 0.01 in Rain Light Rain
1:25 AM 63.0 °F 62.1 °F 97% 29.89 in 10.0 mi NW 3.5 mph - 0.01 in Rain Light Rain
1:38 AM 63.0 °F 63.0 °F 100% 29.89 in 10.0 mi Calm Calm - 0.01 in Rain Light Rain
1:51 AM 63.0 °F 63.0 °F 100% 29.88 in 10.0 mi Calm Calm - 0.01 in Rain Light Rain
2:02 AM 63.0 °F 63.0 °F 100% 29.89 in 10.0 mi ENE 3.5 mph - 0.00 in   Overcast
2:09 AM 63.0 °F 62.1 °F 97% 29.89 in 10.0 mi ENE 3.5 mph - 0.00 in Rain Light Rain
2:34 AM 62.1 °F 62.1 °F 100% 29.88 in 10.0 mi Calm Calm - 0.01 in Rain Light Rain
2:51 AM 62.1 °F 62.1 °F 100% 29.87 in 10.0 mi Calm Calm - 0.01 in   Overcast
3:51 AM 62.1 °F 62.1 °F 100% 29.86 in 10.0 mi Calm Calm - N/A   Overcast
4:51 AM 60.1 °F 60.1 °F 100% 29.88 in 2.5 mi Calm Calm - N/A   Mostly Cloudy
4:58 AM 60.1 °F 60.1 °F 100% 29.89 in 4.0 mi Calm Calm - N/A   Mostly Cloudy
5:51 AM 61.0 °F 60.1 °F 97% 29.88 in 10.0 mi Calm Calm - N/A   Mostly Cloudy
6:03 AM 61.0 °F 60.1 °F 97% 29.90 in 10.0 mi Calm Calm - N/A   Overcast
6:51 AM 61.0 °F 60.1 °F 97% 29.90 in 10.0 mi Variable 3.5 mph - N/A   Overcast
7:00 AM 61.0 °F 60.1 °F 97% 29.90 in 10.0 mi Calm Calm - N/A   Overcast
7:51 AM 62.1 °F 60.1 °F 93% 29.91 in 10.0 mi NNE 3.5 mph - N/A   Overcast
7:58 AM 62.1 °F 60.1 °F 93% 29.91 in 10.0 mi Calm Calm - N/A   Overcast
8:51 AM 63.0 °F 60.1 °F 90% 29.90 in 10.0 mi Calm Calm - N/A   Mostly Cloudy
9:09 AM 64.0 °F 61.0 °F 90% 29.90 in 10.0 mi Calm Calm - N/A   Partly Cloudy
9:51 AM 66.0 °F 61.0 °F 84% 29.90 in 10.0 mi NNW 5.8 mph - N/A   Scattered Clouds
10:51 AM 69.1 °F 61.0 °F 75% 29.91 in 10.0 mi NNW 5.8 mph - N/A   Clear
11:51 AM 72.0 °F 59.0 °F 64% 29.91 in 10.0 mi NNW 9.2 mph - N/A   Clear
12:51 PM 73.0 °F 55.9 °F 55% 29.89 in 10.0 mi NW 12.7 mph - N/A   Clear
1:51 PM 73.9 °F 55.9 °F 53% 29.89 in 10.0 mi North 10.4 mph - N/A   Clear
2:51 PM 72.0 °F 54.0 °F 53% 29.90 in 10.0 mi NW 9.2 mph - N/A   Scattered Clouds
3:51 PM 73.0 °F 57.0 °F 57% 29.89 in 10.0 mi WNW 6.9 mph - N/A   Mostly Cloudy
4:51 PM 72.0 °F 55.9 °F 57% 29.88 in 10.0 mi WNW 9.2 mph - N/A   Clear
5:51 PM 70.0 °F 55.9 °F 61% 29.89 in 10.0 mi WNW 5.8 mph - N/A   Overcast
6:51 PM 68.0 °F 55.9 °F 65% 29.91 in 10.0 mi West 4.6 mph - N/A   Scattered Clouds
7:51 PM 64.0 °F 57.0 °F 78% 29.94 in 10.0 mi Calm Calm - N/A   Clear
8:51 PM 60.1 °F 57.0 °F 90% 29.96 in 10.0 mi Calm Calm - N/A   Mostly Cloudy
9:51 PM 61.0 °F 57.0 °F 87% 29.97 in 10.0 mi WSW 4.6 mph - N/A   Partly Cloudy
10:51 PM 62.1 °F 55.0 °F 78% 29.97 in 10.0 mi WSW 5.8 mph - N/A   Clear
11:51 PM 57.9 °F 52.0 °F 81% 29.96 in 10.0 mi SE 3.5 mph - N/A   Clear